sat.trackr.live / text

‹ back to catalog

STARLINK-6191

NORAD 56378 · 2023-061E

PAYLOAD ACTIVE UNKNOWN

§ Identity

Operator
Country
US
Launch date
2023-05-04
Launch site
AFETR
Launch vehicle
Mass (kg)
RCS (m²)

Purposes: comms

External: N2YO · Heavens-Above · Gunter

§ Orbital elements

Epoch: 2026-09-20T11:36:48.109824Z

Period
94.27 min
Inclination
43.0060°
Eccentricity
0.0001302
Mean motion
15.27570839 rev/d
Perigee alt
482.2 km
Apogee alt
484.0 km
Semi-major
6,861.2 km
B*
-2.6529e-5
RAAN
177.5740°
Arg perigee
256.4047°
Mean anomaly
103.6660°
Rev number
18,654

§ Raw data

STARLINK-61911 56378U 23061E   26263.48389016 -.00000992  00000+0 -26529-4 0  99982 56378  43.0060 177.5740 0001302 256.4047 103.6660 15.27570839186542

JSON: /api/v1/satellites/56378 · /tle

For live sub-satellite position, see the globe view (requires WebGL).

§ Visibility from observer

Set your observer location to see the next 7 days of passes ≥ 10°. The values pass through the URL so the page stays shareable.

No JS? Fill the form by hand. The geolocation button needs JavaScript.